Location: Sternwarte Hubelmatt
(47.0367°N, 8.3053°E)
Time: 02:27:48
(UTC+02:00)

UWE-3 - Pass Details

Date: 02 May 2024
Orbit: 569 x 652 km, 97.8° (Epoch: 23 May)

Event Time Altitude Azimuth Distance (km) Brightness Sun altitude
Rises 05:24:53 0° 358° (N) 2,897 ? -7.5°
Reaches altitude 10° 05:27:39 10° 339° (NNW) 2,003 ? -7.1°
Maximum altitude 05:30:31 17° 298° (WNW) 1,579 ? -6.7°
Drops below altitude 10° 05:33:25 10° 257° (WSW) 2,025 ? -6.2°
Enters shadow 05:34:14 - 250° (WSW) 2,266 ? -6.1°
